This is the latest recevied weather packets stored in our database for station/object VE3VGJ. If no packets are shown the sender has not sent any weather packets the latest 1 day(s).
| Time | Temp. | Humidity | Pressure | Rain* | Wind** | Luminosity | Snow |
|---|---|---|---|---|---|---|---|
| 1778078848 | 6.67° C | 91% | 1009.9 hPa | 0 mm | - | 278 W/m² | - |
| 1778078545 | 6.67° C | 90% | 1010 hPa | 0 mm | - | 222 W/m² | - |
| 1778077940 | 6.67° C | 93% | 1009.8 hPa | 0 mm | - | 280 W/m² | - |
| 1778077336 | 6.67° C | 92% | 1009.8 hPa | 0 mm | - | 243 W/m² | - |
| 1778075519 | 6.11° C | 94% | 1009.9 hPa | 0 mm | - | 186 W/m² | - |
| 1778072488 | 5.56° C | 95% | 1009.7 hPa | 0 mm | - | 49 W/m² | - |
| 1778070675 | 5.56° C | 95% | 1009.2 hPa | 0 mm | - | 45 W/m² | - |
| 1778069161 | 5.56° C | 95% | 1009.2 hPa | 0 mm | - | 47 W/m² | - |
| 1778068254 | 5.56° C | 95% | 1009.2 hPa | 0 mm | - | 45 W/m² | - |
| 1778067649 | 5.56° C | 95% | 1009 hPa | 0 mm | - | 46 W/m² | - |
| 1778067044 | 5.56° C | 95% | 1008.8 hPa | 1.78 mm | - | 39 W/m² | - |
| 1778066740 | 5.56° C | 95% | 1009 hPa | 1.78 mm | - | 40 W/m² | - |
| 1778065832 | 5.56° C | 95% | 1009 hPa | 0 mm | - | 20 W/m² | - |
| 1778065530 | 5.56° C | 95% | 1009.1 hPa | 0 mm | - | 11 W/m² | - |
| 1778064923 | 5.56° C | 95% | 1009 hPa | 1.27 mm | - | 15 W/m² | - |
| 1778063410 | 6.11° C | 94% | 1008.6 hPa | 0 mm | - | 6 W/m² | - |
| 1778062199 | 6.11° C | 94% | 1008.7 hPa | 1.27 mm | - | 1 W/m² | - |
| 1778061595 | 6.11° C | 94% | 1008.8 hPa | 0 mm | - | 1 W/m² | - |
| 1778060989 | 6.11° C | 94% | 1009.1 hPa | 0 mm | - | 0 W/m² | - |
| 1778059478 | 6.11° C | 94% | 1008.9 hPa | 0 mm | - | 0 W/m² | - |
| 1778058873 | 6.11° C | 94% | 1008.7 hPa | 0 mm | - | 0 W/m² | - |
| 1778058267 | 6.11° C | 94% | 1009 hPa | 0 mm | - | 0 W/m² | - |
| 1778057963 | 6.11° C | 94% | 1008.9 hPa | 0 mm | - | 0 W/m² | - |
| 1778057660 | 6.11° C | 94% | 1009.2 hPa | 0 mm | - | 0 W/m² | - |
| 1778057357 | 6.11° C | 94% | 1009.3 hPa | 0 mm | - | 0 W/m² | - |
* Rain latest hour (hover to see other rain measurements)
** Current wind speed in m/s (hover to see current wind gust speed)